Grayling, MI

1:21 AM EDT on October 21, 2017 (GMT -0400)
Grayling

Weather History for KGOV - November, 2011

Change the Weather History Date:

Tuesday, November 8, 2011

  Actual Average (KHTL) Record (KHTL)
Temperature  
Mean Temperature 34 °F -  
Max Temperature 39 °F 46 °F 72 °F (1931)
Min Temperature 28 °F 29 °F 8 °F (1971)
Degree Days  
Heating Degree Days 32    
Moisture  
Dew Point 34 °F    
Average Humidity 93    
Maximum Humidity 100    
Minimum Humidity 80    
Precipitation  
Precipitation 0.00 in - - ()
Sea Level Pressure  
Sea Level Pressure 30.14 in    
Wind  
Wind Speed 3 mph (ENE)    
Max Wind Speed 13 mph    
Max Gust Speed 18 mph    
Visibility 8 miles    
Events Rain    
Averages and records for this station are not official NWS values.
T = Trace of Precipitation, MM = Missing Value Source: NWS Daily Summary

Daily Weather History Graph

Daily Weather History Graph

Search for Another Location

Airport or City:

Trip Planner

Search our weather history database for the weather conditions in past years. The results will help you decide how hot, cold, wet, or windy it might be!

Date:

Astronomy

Nov. 08, 2011 Rise Set
Actual Time 7:25 AM EST 5:18 PM EST
Civil Twilight 6:54 AM EST 5:49 PM EST
Nautical Twilight 6:20 AM EST 6:24 PM EST
Astronomical Twilight 5:45 AM EST 6:58 PM EST
Moon 4:00 PM EST (11/8) 5:21 AM EST (11/8)
Length of Visible Light 10h 54m
Length of Day
9h 52m
Waxing Gibbous, 96% of the Moon is Illuminated
Nov 8
Waxing Gibbous
Nov 10
Full
Nov 18
Last Quarter
Nov 25
New
Dec 2
First Quarter

Hourly Weather History & Observations

Time (EST) Temp. Windchill Dew Point Humidity Pressure Visibility Wind Dir Wind Speed Gust Speed Precip Events Conditions
12:14 AM 28.4 °F - 23.0 °F 80% 30.19 in 10.0 mi Calm Calm - N/A   Clear
12:34 AM 28.4 °F - 23.0 °F 80% 30.19 in 10.0 mi Calm Calm - N/A   Clear
12:54 AM 28.4 °F - 24.8 °F 86% 30.19 in 10.0 mi Calm Calm - N/A   Clear
1:14 AM 28.4 °F - 24.8 °F 86% 30.19 in 10.0 mi Calm Calm - N/A   Clear
1:35 AM 28.4 °F - 23.0 °F 80% 30.19 in 10.0 mi Calm Calm - N/A   Clear
1:54 AM 28.4 °F - 24.8 °F 86% 30.19 in 10.0 mi Calm Calm - N/A   Clear
2:14 AM 28.4 °F - 24.8 °F 86% 30.18 in 10.0 mi Calm Calm - N/A   Clear
2:34 AM 28.4 °F - 24.8 °F 86% 30.18 in 10.0 mi Calm Calm - N/A   Clear
2:55 AM 28.4 °F - 26.6 °F 93% 30.17 in 10.0 mi Calm Calm - N/A   Clear
3:34 AM 32.0 °F - 30.2 °F 93% 30.18 in 10.0 mi Calm Calm - N/A   Mostly Cloudy
4:14 AM 32.0 °F - 30.2 °F 93% 30.19 in 10.0 mi Calm Calm - N/A   Mostly Cloudy
4:35 AM 32.0 °F - 28.4 °F 87% 30.19 in 10.0 mi Calm Calm - N/A   Overcast
4:55 AM 32.0 °F - 28.4 °F 87% 30.19 in 10.0 mi Calm Calm - N/A   Overcast
5:14 AM 32.0 °F - 30.2 °F 93% 30.19 in 10.0 mi Calm Calm - N/A   Overcast
5:35 AM 33.8 °F - 30.2 °F 87% 30.19 in 10.0 mi Calm Calm - N/A   Overcast
5:54 AM 33.8 °F - 30.2 °F 87% 30.18 in 10.0 mi Calm Calm - N/A   Overcast
6:15 AM 33.8 °F - 30.2 °F 87% 30.21 in 10.0 mi Calm Calm - N/A   Overcast
6:54 AM 33.8 °F 30.8 °F 30.2 °F 87% 30.19 in 10.0 mi NNE 3.5 mph - N/A   Overcast
7:15 AM 33.8 °F - 30.2 °F 87% 30.20 in 10.0 mi Calm Calm - N/A   Overcast
7:35 AM 33.8 °F - 30.2 °F 87% 30.19 in 10.0 mi Calm Calm - N/A   Overcast
7:54 AM 33.8 °F - 30.2 °F 87% 30.19 in 10.0 mi Calm Calm - N/A   Overcast
8:15 AM 35.6 °F - 32.0 °F 87% 30.21 in 10.0 mi Calm Calm - N/A Rain Light Rain
8:35 AM 35.6 °F 32.8 °F 30.2 °F 81% 30.19 in 10.0 mi ENE 3.5 mph - N/A   Overcast
8:54 AM 35.6 °F - 30.2 °F 81% 30.20 in 10.0 mi Calm Calm - N/A   Overcast
9:15 AM 35.6 °F - 30.2 °F 81% 30.18 in 10.0 mi Calm Calm - N/A   Overcast
9:34 AM 37.4 °F - 32.0 °F 81% 30.19 in 10.0 mi Calm Calm - N/A Rain Light Rain
9:55 AM 37.4 °F - 33.8 °F 87% 30.17 in 10.0 mi Calm Calm - N/A   Overcast
10:15 AM 37.4 °F - 33.8 °F 87% 30.18 in 10.0 mi Calm Calm - N/A Rain Light Rain
10:34 AM 37.4 °F - 35.6 °F 93% 30.18 in 10.0 mi Calm Calm - N/A Rain Rain
11:15 AM 37.4 °F 34.9 °F 37.4 °F 100% 30.18 in 5.0 mi NE 3.5 mph - N/A Rain Rain
11:35 AM 37.4 °F 34.9 °F 37.4 °F 100% 30.18 in 5.0 mi ENE 3.5 mph - N/A Rain Rain
11:55 AM 37.4 °F 33.8 °F 37.4 °F 100% 30.17 in 5.0 mi NE 4.6 mph - N/A Rain Rain
12:15 PM 39.2 °F 34.2 °F 37.4 °F 93% 30.15 in 4.0 mi ENE 6.9 mph - N/A Rain Rain
12:34 PM 39.2 °F 35.0 °F 39.2 °F 100% 30.14 in 5.0 mi ENE 5.8 mph - N/A Rain Rain
12:55 PM 39.2 °F 34.2 °F 39.2 °F 100% 30.13 in 4.0 mi ENE 6.9 mph - N/A Rain Rain
1:14 PM 39.2 °F 33.0 °F 37.4 °F 93% 30.11 in 4.0 mi East 9.2 mph - N/A Rain Rain
1:34 PM 39.2 °F 33.6 °F 37.4 °F 93% 30.11 in 4.0 mi ENE 8.1 mph - N/A Rain Rain
1:55 PM 39.2 °F 32.5 °F 37.4 °F 93% 30.11 in 7.0 mi East 10.4 mph - N/A Rain Rain
2:14 PM 37.4 °F 32.1 °F 37.4 °F 100% 30.10 in 5.0 mi ENE 6.9 mph - N/A Rain Rain
2:35 PM 39.2 °F 33.6 °F 37.4 °F 93% 30.08 in 5.0 mi ENE 8.1 mph - N/A Rain Rain
2:55 PM 39.2 °F 34.2 °F 39.2 °F 100% 30.06 in 5.0 mi ENE 6.9 mph - N/A Rain Rain
3:14 PM 39.2 °F 32.5 °F 39.2 °F 100% 30.05 in 10.0 mi ENE 10.4 mph - N/A Rain Light Rain
3:35 PM 39.2 °F 33.0 °F 37.4 °F 93% 30.04 in 10.0 mi East 9.2 mph - N/A Rain Rain
3:55 PM 39.2 °F 32.0 °F 37.4 °F 93% 30.03 in 7.0 mi ENE 11.5 mph 17.3 mph N/A Rain Light Rain
4:14 PM 39.2 °F 32.0 °F 37.4 °F 93% 30.05 in 7.0 mi NE 11.5 mph 16.1 mph N/A Rain Rain
4:35 PM 39.2 °F 33.0 °F 37.4 °F 93% 30.06 in 4.0 mi ENE 9.2 mph 17.3 mph N/A Rain Rain
4:55 PM 37.4 °F 30.8 °F 37.4 °F 100% 30.09 in 5.0 mi NE 9.2 mph - N/A Rain Light Rain
5:14 PM 37.4 °F 32.1 °F 37.4 °F 100% 30.09 in 7.0 mi NE 6.9 mph - N/A Rain Light Rain
5:35 PM 37.4 °F 30.3 °F 37.4 °F 100% 30.09 in 7.0 mi NE 10.4 mph - N/A Rain Rain
5:54 PM 37.4 °F 30.3 °F 37.4 °F 100% 30.09 in 10.0 mi NE 10.4 mph - N/A   Drizzle
6:14 PM 37.4 °F 29.8 °F 37.4 °F 100% 30.09 in 7.0 mi NE 11.5 mph - N/A   Drizzle
6:35 PM 37.4 °F 30.8 °F 37.4 °F 100% 30.09 in 7.0 mi NE 9.2 mph - N/A   Drizzle
6:55 PM 37.4 °F 31.4 °F 37.4 °F 100% 30.09 in 7.0 mi NE 8.1 mph - N/A   Drizzle
7:15 PM 37.4 °F 31.4 °F 37.4 °F 100% 30.09 in 7.0 mi NE 8.1 mph - N/A Rain Light Rain
7:35 PM 37.4 °F 30.8 °F 37.4 °F 100% 30.10 in 10.0 mi NE 9.2 mph - N/A   Drizzle
7:54 PM 37.4 °F 30.8 °F 37.4 °F 100% 30.09 in 7.0 mi NE 9.2 mph - N/A Rain Light Rain
8:15 PM 37.4 °F 30.8 °F 37.4 °F 100% 30.08 in 4.0 mi ENE 9.2 mph 16.1 mph N/A Rain Light Rain
8:35 PM 37.4 °F 29.3 °F 37.4 °F 100% 30.06 in 4.0 mi ENE 12.7 mph 18.4 mph N/A Rain Light Rain
8:54 PM 37.4 °F 29.3 °F 37.4 °F 100% 30.06 in 4.0 mi ENE 12.7 mph 17.3 mph N/A   Overcast
9:15 PM 37.4 °F 31.4 °F 37.4 °F 100% 30.07 in 7.0 mi NE 8.1 mph - N/A   Overcast
9:35 PM 37.4 °F 30.3 °F 37.4 °F 100% 30.06 in 7.0 mi NE 10.4 mph - N/A   Overcast
9:54 PM 37.4 °F 30.3 °F 37.4 °F 100% 30.06 in 10.0 mi NE 10.4 mph - N/A   Overcast
10:15 PM 37.4 °F 30.8 °F 37.4 °F 100% 30.05 in 10.0 mi NE 9.2 mph - N/A   Overcast
10:35 PM 37.4 °F 31.4 °F 37.4 °F 100% 30.04 in 10.0 mi NE 8.1 mph - N/A   Overcast
10:55 PM 37.4 °F 30.3 °F 37.4 °F 100% 30.04 in 7.0 mi NE 10.4 mph - N/A   Overcast
11:15 PM 37.4 °F 30.8 °F 37.4 °F 100% 30.04 in 5.0 mi NE 9.2 mph - N/A   Overcast
11:35 PM 37.4 °F 30.3 °F 37.4 °F 100% 30.06 in 5.0 mi NNE 10.4 mph 16.1 mph N/A   Drizzle
11:55 PM 37.4 °F 30.3 °F 37.4 °F 100% 30.04 in 4.0 mi NE 10.4 mph - N/A Rain Heavy Rain